RH
38 43 45 32 30 32 32 25 11 8 8 10 10 6 13 14 12 12 12 15 17 17 16 16 21 22 24 32 33 35 61 58 45 43 42 55 48 55 60 51 61 56 73 65 54
41 44 44 21 22 21 22 26 29 24 10 9 10 6 12 15 14 13 16 16 16 15 13 10 16 20 24 28 30 43 62 46 38 37 67 66 62 67 63 59 64 62 51 69 68
47 48 46 31 33 32 25 18 19 20 10 9 7 5 12 17 18 21 17 17 15 15 14 14 18 21 28 30 35 38 48 41 37 40 50 64 70 61 64 73 76 85 82 80 77
57 58 55 42 33 33 27 22 17 12 10 9 8 8 13 24 19 20 17 17 15 14 14 15 16 21 38 38 34 37 34 34 37 44 55 69 72 72 75 79 79 86 89 94 100
59 59 58 48 35 34 28 21 13 14 10 8 8 11 22 19 25 19 18 16 14 13 13 16 19 28 36 38 32 34 33 40 45 49 63 63 79 66 73 83 86 90 93 95 99
57 55 54 51 37 33 29 23 14 16 12 10 10 15 20 26 22 19 16 16 15 13 16 19 24 29 34 39 35 34 37 51 52 54 56 58 65 60 76 84 86 90 97 100 100
60 55 52 49 42 38 34 25 19 17 12 13 16 17 14 22 20 17 16 16 18 16 17 21 24 24 33 35 36 35 40 42 50 54 67 60 68 72 77 78 84 89 94 94 98
62 57 54 49 46 43 35 28 20 19 14 14 20 14 20 22 16 19 19 18 21 24 19 23 26 24 26 33 28 33 39 47 38 46 46 58 60 64 70 77 76 86 97 100 97
62 60 56 50 46 39 36 29 21 18 17 19 21 13 18 17 15 21 16 24 23 27 26 29 24 20 23 30 33 38 44 40 40 44 43 46 61 62 66 71 69 81 95 99 100
66 62 61 50 48 40 38 26 18 17 21 15 14 11 14 15 19 21 14 21 25 28 28 23 15 28 34 34 28 30 36 35 43 39 49 58 66 65 61 64 64 73 86 98 100
68 62 54 55 45 39 39 22 24 14 13 21 19 18 17 18 21 18 15 22 24 24 34 30 32 24 24 28 30 32 37 40 38 42 45 55 66 68 65 58 59 60 77 89 99
73 59 60 57 45 39 40 19 29 22 29 22 19 16 19 19 18 20 17 18 25 33 26 32 27 20 25 27 29 35 39 41 36 41 45 68 66 72 64 58 53 51 62 66 83
77 59 59 60 45 39 43 35 26 33 26 19 21 18 19 21 23 20 19 22 31 28 30 34 22 23 26 24 30 32 38 36 39 43 58 69 65 80 69 55 47 43 50 49 55
74 60 47 62 46 42 51 43 31 39 39 27 18 19 19 20 23 19 20 26 24 27 29 28 20 23 21 20 32 36 33 36 40 51 62 53 60 59 70 65 55 47 44 50 41
62 60 51 63 54 45 55 43 31 47 58 26 21 22 18 20 22 18 22 24 26 27 23 21 24 21 20 19 28 33 35 41 42 53 56 55 67 52 65 68 57 51 44 42 42
56 47 45 56 56 49 59 43 44 56 52 26 23 29 22 21 19 17 17 22 24 26 27 26 26 26 19 23 26 35 41 50 63 61 77 54 66 53 65 61 59 51 44 42 38
47 36 36 44 54 55 58 45 62 63 27 34 33 32 30 25 20 24 27 36 32 37 40 36 30 25 24 25 29 44 52 69 65 82 67 53 61 53 69 58 51 50 45 42 40
37 37 39 58 55 56 50 50 51 30 30 28 30 27 24 26 23 26 22 36 30 31 43 45 51 26 21 24 26 39 46 64 50 64 61 46 59 51 63 53 47 46 45 43 40
40 45 57 57 58 50 43 70 51 36 27 32 32 29 31 24 24 27 24 36 34 29 28 38 35 27 25 24 30 32 43 37 42 52 66 54 46 68 59 58 52 50 48 46 44
43 50 61 56 54 50 58 57 38 27 28 28 32 26 34 30 32 31 26 23 34 29 28 28 38 29 30 25 28 34 32 46 59 60 64 54 51 72 74 65 57 55 49 47 47
48 54 58 56 56 44 69 59 31 28 31 31 31 32 29 30 29 29 24 22 32 33 28 30 36 35 30 32 32 35 45 39 45 52 62 65 53 68 72 64 62 53 47 46 46
56 57 59 56 58 70 66 41 32 32 31 30 30 30 30 30 32 29 27 22 31 28 27 30 42 46 35 29 28 26 31 36 53 63 54 53 61 70 75 62 57 54 48 47 47
65 63 58 56 81 82 61 45 33 34 32 32 33 33 32 33 40 32 29 26 31 29 26 29 41 52 50 43 36 34 33 36 43 61 83 80 72 68 65 61 57 52 49 49 50
67 77 58 52 49 62 52 54 44 33 32 33 32 32 35 47 34 40 35 32 30 30 30 30 42 41 61 51 40 48 45 44 45 87 62 66 57 53 66 65 56 52 48 49 51
75 87 79 81 74 53 46 44 47 53 40 36 40 36 47 66 50 42 34 41 52 42 40 37 48 50 44 44 45 43 43 44 53 45 56 46 56 45 50 63 57 52 50 50 51
80 80 72 74 66 56 60 62 53 55 46 47 44 42 41 56 57 70 60 59 61 44 40 50 54 55 60 52 55 64 58 58 56 54 54 53 56 46 51 51 58 54 51 51 52
89 85 80 87 66 71 75 61 60 50 58 48 48 54 61 57 52 50 50 49 53 45 45 48 58 58 72 76 80 81 63 60 63 68 67 76 61 58 59 61 57 54 53 52 51
Wind_Speed
18 19 21 19 17 16 14 13 11 10 9 7 6 2 2 6 9 10 11 12 9 10 9 6 4 3 11 10 8 4 5 2 1 2 1 9 5 6 1 9 5 20 5 26 33
18 20 22 18 19 18 17 14 12 11 9 7 5 1 4 8 6 15 13 12 10 10 9 9 9 9 7 7 5 6 4 2 4 3 5 12 10 6 5 16 9 36 30 33 34
21 22 23 20 20 21 21 16 13 11 9 6 3 2 5 7 2 10 13 12 10 9 9 9 6 7 8 8 7 3 4 3 4 10 11 7 10 14 10 4 14 27 36 36 34
20 21 22 22 20 21 23 17 13 10 8 6 3 5 6 7 2 8 11 13 9 8 7 9 5 4 5 4 4 5 5 4 2 8 6 4 9 5 18 11 21 22 25 26 28
22 23 22 21 20 22 23 16 13 11 8 6 5 7 7 9 6 9 9 11 8 7 8 7 11 4 4 3 3 4 2 5 8 13 15 12 8 4 16 22 20 21 21 22 22
22 22 22 20 18 20 22 15 10 14 7 5 6 6 5 7 7 10 9 9 7 7 9 11 8 6 5 3 3 1 4 12 9 9 5 6 6 3 13 21 24 24 22 20 20
22 22 23 19 18 20 21 16 9 10 7 6 8 12 15 8 8 9 12 9 7 7 7 8 6 6 2 3 3 4 4 3 4 8 6 7 5 2 15 19 21 24 24 24 21
22 23 22 21 16 20 19 14 8 7 7 7 7 6 7 8 8 8 11 7 5 6 5 5 5 5 4 3 5 4 5 2 0 7 4 9 3 1 13 16 17 20 22 26 24
22 23 23 22 19 21 18 9 7 6 8 7 6 5 4 7 6 9 12 7 4 5 4 4 4 5 4 4 5 7 2 1 4 4 3 1 2 2 10 12 15 21 27 28 29
22 24 24 25 19 20 20 6 9 11 7 8 8 6 7 6 4 8 13 7 4 3 2 5 5 4 4 6 1 3 3 3 4 2 5 2 2 3 8 10 14 19 26 29 30
21 24 25 25 19 21 21 6 4 5 18 10 8 6 6 8 4 8 14 5 4 4 4 5 6 2 3 1 1 1 2 4 4 2 1 2 3 3 5 9 14 21 23 28 27
22 23 24 22 16 19 21 9 7 5 7 10 7 6 7 11 2 10 14 4 5 3 2 5 1 2 1 2 2 0 2 4 4 1 1 4 7 5 1 4 12 18 20 24 27
21 22 22 22 13 22 26 16 5 4 3 5 7 6 7 9 4 8 12 4 4 3 3 3 2 1 1 1 4 3 3 2 4 2 1 2 5 4 3 3 11 15 16 20 23
20 20 19 20 10 20 23 17 2 2 4 8 6 5 8 5 2 7 9 5 3 1 1 1 2 1 1 2 3 3 4 3 3 2 3 1 5 4 4 3 4 12 15 17 21
17 18 19 17 12 15 19 12 2 2 4 5 5 6 8 4 5 7 7 3 1 3 3 2 2 3 2 2 3 6 1 4 2 3 2 2 1 2 4 4 2 6 11 14 16
17 17 16 15 12 14 19 7 3 5 2 5 4 7 5 5 5 8 5 5 2 2 3 2 3 1 2 3 2 5 2 3 3 1 1 2 4 3 4 4 3 1 7 11 13
16 16 14 12 12 15 20 2 5 6 2 5 4 5 2 4 5 7 5 7 4 5 6 6 2 3 1 4 2 8 5 3 4 3 4 3 2 6 3 2 4 7 6 7 10
15 14 12 8 10 16 14 4 6 2 1 1 3 3 4 6 3 7 2 4 3 4 2 4 6 3 3 1 2 3 2 3 5 3 5 1 5 2 3 7 8 8 7 6 8
14 13 6 7 9 16 5 5 3 2 2 5 4 5 4 4 4 6 3 0 1 2 3 4 5 3 0 1 3 2 1 2 2 2 2 3 3 2 3 4 8 9 8 6 6
15 9 4 9 12 9 4 2 0 2 3 2 3 3 4 5 6 6 3 2 1 0 1 2 5 2 4 1 1 2 2 1 2 4 5 5 4 4 6 10 8 10 12 9 6
13 3 8 11 7 4 4 0 1 1 3 3 1 2 2 3 1 3 3 2 1 0 0 2 2 5 3 3 3 1 1 1 1 2 3 4 5 5 5 10 13 15 15 11 8
7 3 9 9 3 3 2 1 1 1 1 2 2 1 1 2 2 2 2 2 2 1 3 1 3 4 9 2 2 2 3 4 3 5 3 2 7 2 4 7 17 18 18 13 9
7 4 7 7 3 2 3 2 0 1 1 1 1 1 0 2 4 1 3 2 3 2 1 2 1 4 8 3 2 3 4 4 2 2 7 4 6 1 2 4 14 21 19 15 12
4 3 4 7 6 3 2 2 3 2 1 1 0 1 1 1 2 3 2 2 4 4 6 4 3 7 7 6 1 7 7 6 7 4 7 16 19 12 5 7 13 19 22 19 14
5 3 3 3 4 3 2 2 2 3 1 0 0 2 3 2 3 3 3 5 5 6 1 1 5 5 10 9 7 16 19 11 12 18 10 25 13 18 8 13 26 28 26 22 18
4 2 2 1 2 1 1 2 2 3 2 1 3 1 5 4 7 10 4 2 6 1 3 1 4 2 8 12 9 12 17 13 15 16 15 21 24 14 12 13 19 27 30 26 20
1 2 3 1 1 1 3 2 2 0 3 5 3 3 5 10 15 19 19 21 17 5 3 3 2 3 5 3 8 9 12 9 4 5 6 7 6 2 1 4 13 19 24 24 20
Wind_Direction
31 23 15 14 14 8 359 353 345 337 331 329 325 333 79 128 68 54 39 28 29 26 27 13 30 96 64 58 55 79 62 110 134 88 45 7 40 37 35 26 12 350 318 321 318
25 19 18 20 16 12 2 350 343 338 333 326 319 250 155 159 85 43 31 23 22 21 25 42 52 67 68 41 47 71 88 120 168 129 96 68 59 11 18 23 340 335 328 330 329
22 16 14 13 10 8 6 7 357 347 348 352 4 148 155 165 100 23 14 10 17 20 27 35 70 64 53 47 20 54 121 170 71 117 139 117 69 54 22 13 339 321 331 337 339
17 12 10 10 9 6 4 2 360 360 353 355 43 123 121 145 83 12 17 9 20 22 30 44 68 54 62 51 36 89 72 106 105 132 120 101 121 90 47 334 334 334 327 339 343
16 12 9 6 7 3 4 9 23 12 18 36 98 124 112 86 62 20 18 15 23 27 44 49 52 60 73 63 64 70 68 75 116 109 96 112 65 114 14 355 355 343 348 344 348
18 14 10 6 6 2 1 7 7 15 26 59 98 111 103 78 42 15 18 15 27 32 51 56 57 68 92 69 76 344 120 146 139 125 127 103 68 69 343 1 358 357 352 349 349
12 13 14 10 7 4 360 359 8 23 37 82 100 95 83 73 29 25 11 13 31 41 65 57 49 42 82 96 59 104 91 140 158 174 147 126 60 37 1 16 6 356 353 356 351
8 7 9 11 3 5 360 352 16 29 60 80 104 79 75 44 27 22 15 20 36 38 54 50 46 58 45 90 32 46 45 21 333 156 2 175 248 277 13 15 2 358 357 360 6
5 3 4 4 3 2 0 359 38 46 83 76 83 88 53 15 23 16 11 8 21 23 36 43 35 45 41 52 20 15 270 289 315 3 134 251 208 348 10 12 1 9 7 7 8
1 359 357 4 3 7 3 48 77 59 104 78 65 90 33 355 21 10 3 2 5 4 23 30 38 53 31 47 306 287 340 309 259 304 44 66 172 311 10 9 9 10 13 13 19
353 356 354 360 8 14 8 93 113 75 66 72 68 81 30 18 51 16 7 15 18 49 35 22 66 351 283 192 205 283 239 259 261 179 123 243 199 239 350 23 16 20 16 15 27
349 354 357 359 12 17 20 68 93 111 75 56 55 45 20 8 29 18 7 29 45 52 353 24 103 246 231 49 19 73 266 283 287 102 258 192 247 215 1 30 37 26 20 17 21
342 350 358 358 5 13 21 37 102 116 88 35 31 21 2 358 15 4 5 22 64 45 27 144 232 280 175 351 356 279 204 241 229 300 143 152 268 200 203 81 42 39 31 33 28
335 344 353 359 7 4 14 10 69 105 78 329 1 12 352 353 12 355 2 20 30 74 75 245 327 351 333 281 143 297 227 244 265 57 250 272 292 228 186 205 34 32 32 30 33
331 339 346 357 353 5 3 1 91 104 52 312 328 345 348 44 335 1 4 14 62 327 82 306 346 348 327 278 180 243 303 257 247 204 20 215 2 260 146 221 290 25 32 40 40
331 339 339 346 354 353 355 9 116 46 274 336 329 357 26 16 4 342 358 19 32 73 11 292 305 245 271 303 227 330 351 31 39 91 323 214 159 255 194 190 162 121 49 37 48
337 339 338 337 346 348 346 14 40 96 350 320 329 8 329 327 359 31 23 11 33 21 9 335 321 308 327 330 32 30 32 337 353 1 237 156 150 265 166 157 160 156 100 58 48
342 341 340 345 350 346 346 50 71 239 274 9 344 324 30 9 18 354 47 23 17 48 51 27 339 360 356 29 307 7 91 125 301 301 291 140 236 279 140 142 143 140 128 99 66
344 340 354 3 348 345 353 51 176 220 314 350 337 47 335 11 11 15 26 120 259 46 39 17 281 308 117 22 110 338 28 195 246 251 306 251 294 129 133 165 174 174 166 139 104
346 349 22 351 337 345 60 134 61 9 357 32 17 32 343 329 17 28 337 304 360 93 126 214 296 266 291 340 98 176 192 350 11 317 300 292 276 256 221 217 205 198 194 169 147
348 19 2 348 359 39 93 176 343 20 11 31 339 327 352 325 330 302 287 303 307 281 78 145 142 285 334 196 193 338 296 121 169 176 258 303 266 192 215 200 200 201 200 187 175
355 9 356 354 35 47 89 281 320 18 24 57 107 183 225 309 291 294 291 259 328 329 336 256 165 274 243 246 278 204 230 158 132 286 254 224 265 31 296 250 178 183 194 190 192
355 347 7 16 87 10 328 334 296 349 45 31 42 204 23 302 326 228 326 321 319 337 354 187 279 318 329 7 18 226 212 200 99 113 202 242 258 76 38 142 178 182 190 193 190
0 19 26 56 79 110 22 337 321 341 17 47 303 74 40 297 225 280 287 270 311 249 253 203 213 199 232 236 183 256 243 211 199 212 247 238 268 263 229 230 184 195 193 193 197
21 52 25 338 15 47 4 334 321 323 30 256 327 226 184 276 299 254 241 301 300 330 219 180 247 211 263 267 257 264 263 246 223 248 243 275 261 267 232 210 208 202 191 188 195
24 19 29 354 324 7 338 231 223 288 211 260 215 225 180 210 216 281 256 182 245 345 187 190 275 231 277 249 266 271 265 249 242 251 250 261 268 289 284 231 179 187 188 187 193
40 336 355 326 19 79 240 224 263 284 262 228 236 286 249 252 274 273 275 264 246 201 197 245 269 323 269 341 303 279 268 214 200 189 183 221 247 352 319 246 182 178 182 189 189